Location: Saint-Palais-sur-Mer
(45.6429°N, 1.0859°W)
Time: 00:48:56
(UTC+01:00)

Tiros 1 despin weight - Pass Details

Date: 10 February 2026
Orbit: 556 x 593 km, 48.2° (Epoch: 13 March)

Event Time Altitude Azimuth Distance (km) Brightness Sun altitude
Rises 02:06:17 0° 281° (W) 2,758 - -57.2°
Reaches altitude 10° 02:09:23 10° 257° (WSW) 1,866 - -57.0°
Maximum altitude 02:11:45 15° 224° (SW) 1,593 - -56.8°
Drops below altitude 10° 02:14:07 10° 190° (S) 1,874 - -56.6°
Sets 02:17:15 0° 166° (SSE) 2,777 - -56.4°
